When you browse on this site, cookies collect data to enhance your experience and personalize the content and advertising you see.
Visit our Privacy Policy to learn more. By continuing to use the site, you agree to this use of cookies and data.
  • Em Portugal
  • Lista de países
  • Para 7 dias
  • Temperatura da água
  • Mapas de satélite
  • Mapa do tempo
  • Widgets de tempo
  • user-avatar
    Iniciar Sessão

    Previsão horária em Chrustowice

    Hoje, 19 Junho, Quarta-feira

    Tempo Temperatura Precipitação Vento Pressão Humidade
    00:00 +19°C° 0 mm 3 m/s 743 mmHg 95%
    01:00 +18°C° 0 mm 3 m/s 743 mmHg 96%
    02:00 +18°C° 0 mm 2 m/s 743 mmHg 96%
    03:00 +18°C° 0 mm 2 m/s 743 mmHg 97%
    04:00 +18°C° 0 mm 2 m/s 743 mmHg 97%
    05:00 +19°C° 0 mm 2 m/s 743 mmHg 94%
    06:00 +20°C° 0 mm 2 m/s 742 mmHg 91%
    07:00 +21°C° 0 mm 2 m/s 742 mmHg 87%
    08:00 +24°C° 0 mm 1 m/s 742 mmHg 81%
    09:00 +25°C° 0 mm 1 m/s 742 mmHg 75%
    10:00 +27°C° 0 mm 1 m/s 742 mmHg 69%
    11:00 +28°C° 0 mm 1 m/s 742 mmHg 64%
    12:00 +29°C° 0 mm 1 m/s 741 mmHg 60%
    13:00 +29°C° 0 mm 1 m/s 741 mmHg 56%
    14:00 +30°C° 0 mm 1 m/s 741 mmHg 55%
    15:00 +30°C° 0 mm 1 m/s 740 mmHg 54%
    16:00 +28°C° 0 mm 0 m/s 740 mmHg 54%
    17:00 +28°C° 0.3 mm 1 m/s 740 mmHg 60%
    18:00 +27°C° 0.3 mm 1 m/s 740 mmHg 66%
    19:00 +25°C° 0.3 mm 1 m/s 740 mmHg 73%
    20:00 +24°C° 0.4 mm 1 m/s 740 mmHg 76%
    21:00 +23°C° 0.4 mm 1 m/s 740 mmHg 79%
    22:00 +20°C° 0.4 mm 0 m/s 740 mmHg 83%
    23:00 +22°C° 0 mm 1 m/s 740 mmHg 84%

    Amanhã, 20 Junho, Quinta-feira

    Tempo Temperatura Precipitação Vento Pressão Humidade
    00:00 +21°C° 0 mm 1 m/s 740 mmHg 85%
    01:00 +21°C° 0 mm 1 m/s 740 mmHg 86%
    02:00 +20°C° 0 mm 1 m/s 740 mmHg 86%
    03:00 +20°C° 0 mm 1 m/s 740 mmHg 86%
    04:00 +20°C° 0 mm 1 m/s 740 mmHg 86%
    05:00 +21°C° 0 mm 1 m/s 740 mmHg 83%
    06:00 +23°C° 0 mm 1 m/s 740 mmHg 79%
    07:00 +24°C° 0 mm 1 m/s 740 mmHg 76%
    08:00 +26°C° 0.1 mm 1 m/s 740 mmHg 71%
    09:00 +27°C° 0.1 mm 1 m/s 740 mmHg 66%
    10:00 +28°C° 0.1 mm 1 m/s 740 mmHg 61%
    11:00 +28°C° 0.5 mm 1 m/s 740 mmHg 61%
    12:00 +28°C° 0.5 mm 1 m/s 740 mmHg 61%
    13:00 +28°C° 0.5 mm 1 m/s 740 mmHg 61%
    14:00 +28°C° 0.3 mm 1 m/s 740 mmHg 64%
    15:00 +27°C° 0.3 mm 1 m/s 740 mmHg 67%
    16:00 +26°C° 0.3 mm 1 m/s 740 mmHg 70%
    17:00 +26°C° 0 mm 1 m/s 740 mmHg 72%
    18:00 +25°C° 0 mm 1 m/s 739 mmHg 74%
    19:00 +25°C° 0 mm 1 m/s 739 mmHg 76%
    20:00 +23°C° 0 mm 1 m/s 740 mmHg 78%
    21:00 +22°C° 0 mm 1 m/s 740 mmHg 80%
    22:00 +21°C° 0 mm 1 m/s 740 mmHg 81%
    23:00 +21°C° 0 mm 1 m/s 740 mmHg 83%

    Depois de amanhã, 21 Junho, Sexta-feira

    Tempo Temperatura Precipitação Vento Pressão Humidade
    00:00 +20°C° 0 mm 1 m/s 740 mmHg 84%
    01:00 +20°C° 0 mm 1 m/s 740 mmHg 86%
    02:00 +20°C° 0.1 mm 1 m/s 740 mmHg 87%
    03:00 +20°C° 0.1 mm 1 m/s 741 mmHg 88%
    04:00 +19°C° 0.1 mm 1 m/s 741 mmHg 89%
    05:00 +21°C° 0.1 mm 1 m/s 741 mmHg 86%
    06:00 +22°C° 0.1 mm 1 m/s 741 mmHg 84%
    07:00 +23°C° 0.1 mm 2 m/s 741 mmHg 81%
    08:00 +25°C° 0.9 mm 2 m/s 741 mmHg 77%
    09:00 +26°C° 0.9 mm 1 m/s 741 mmHg 74%
    10:00 +27°C° 0.9 mm 1 m/s 741 mmHg 70%
    11:00 +27°C° 0.8 mm 1 m/s 741 mmHg 66%
    12:00 +28°C° 0.8 mm 1 m/s 741 mmHg 62%
    13:00 +29°C° 0.8 mm 1 m/s 741 mmHg 58%
    14:00 +28°C° 0.2 mm 1 m/s 741 mmHg 60%
    15:00 +28°C° 0.2 mm 1 m/s 741 mmHg 62%
    16:00 +28°C° 0.2 mm 2 m/s 741 mmHg 64%
    17:00 +26°C° 0.3 mm 2 m/s 741 mmHg 71%
    18:00 +25°C° 0.3 mm 2 m/s 741 mmHg 78%
    19:00 +24°C° 0.3 mm 2 m/s 741 mmHg 85%
    20:00 +23°C° 0.3 mm 2 m/s 741 mmHg 86%
    21:00 +21°C° 0.3 mm 2 m/s 741 mmHg 87%
    22:00 +21°C° 0.3 mm 2 m/s 742 mmHg 88%
    23:00 +20°C° 0.4 mm 2 m/s 742 mmHg 90%

    22 Junho, Sábado

    Tempo Temperatura Precipitação Vento Pressão Humidade
    00:00 +20°C° 0.4 mm 2 m/s 742 mmHg 92%
    01:00 +19°C° 0.4 mm 2 m/s 742 mmHg 94%
    02:00 +19°C° 1.2 mm 2 m/s 742 mmHg 95%
    03:00 +19°C° 1.2 mm 2 m/s 742 mmHg 95%
    04:00 +18°C° 1.2 mm 2 m/s 742 mmHg 96%
    05:00 +19°C° 0.9 mm 2 m/s 742 mmHg 95%
    06:00 +20°C° 0.9 mm 2 m/s 742 mmHg 93%
    07:00 +20°C° 0.9 mm 2 m/s 743 mmHg 92%
    08:00 +21°C° 0.8 mm 2 m/s 743 mmHg 89%
    09:00 +23°C° 0.8 mm 2 m/s 743 mmHg 86%
    10:00 +23°C° 0.8 mm 1 m/s 743 mmHg 84%
    11:00 +24°C° 1.2 mm 1 m/s 743 mmHg 81%
    12:00 +25°C° 1.2 mm 1 m/s 743 mmHg 79%
    13:00 +25°C° 1.2 mm 2 m/s 743 mmHg 77%
    14:00 +24°C° 1.5 mm 2 m/s 742 mmHg 81%
    15:00 +24°C° 1.5 mm 2 m/s 742 mmHg 84%
    16:00 +22°C° 1.5 mm 3 m/s 742 mmHg 88%
    17:00 +21°C° 1.3 mm 2 m/s 742 mmHg 90%
    18:00 +20°C° 1.3 mm 2 m/s 742 mmHg 91%
    19:00 +21°C° 1.3 mm 1 m/s 742 mmHg 93%
    20:00 +21°C° 0.8 mm 1 m/s 742 mmHg 94%
    21:00 +19°C° 0.8 mm 2 m/s 742 mmHg 95%
    22:00 +19°C° 0.8 mm 2 m/s 742 mmHg 96%
    23:00 +20°C° 0.3 mm 1 m/s 742 mmHg 96%

    23 Junho, Domingo

    Tempo Temperatura Precipitação Vento Pressão Humidade
    00:00 +20°C° 0.3 mm 1 m/s 741 mmHg 97%
    01:00 +20°C° 0.3 mm 1 m/s 741 mmHg 97%
    02:00 +19°C° 0.1 mm 1 m/s 741 mmHg 97%
    03:00 +19°C° 0.1 mm 1 m/s 741 mmHg 97%
    04:00 +19°C° 0.1 mm 1 m/s 741 mmHg 97%
    05:00 +20°C° 0 mm 1 m/s 741 mmHg 94%
    06:00 +20°C° 0 mm 2 m/s 741 mmHg 92%
    07:00 +21°C° 0 mm 2 m/s 741 mmHg 89%
    08:00 +22°C° 0.2 mm 3 m/s 741 mmHg 86%
    09:00 +23°C° 0.2 mm 4 m/s 741 mmHg 83%
    10:00 +23°C° 0.2 mm 5 m/s 741 mmHg 80%
    11:00 +23°C° 0.6 mm 5 m/s 741 mmHg 80%
    12:00 +22°C° 0.6 mm 6 m/s 741 mmHg 80%
    13:00 +22°C° 0.6 mm 7 m/s 741 mmHg 81%
    14:00 +20°C° 0 mm 7 m/s 741 mmHg 81%
    15:00 +18°C° 0 mm 7 m/s 742 mmHg 82%
    16:00 +17°C° 0 mm 7 m/s 742 mmHg 82%
    17:00 +17°C° 0.1 mm 7 m/s 742 mmHg 84%
    18:00 +16°C° 0.1 mm 7 m/s 743 mmHg 86%
    19:00 +16°C° 0.1 mm 6 m/s 743 mmHg 88%
    20:00 +15°C° 0.1 mm 6 m/s 743 mmHg 89%
    21:00 +15°C° 0.1 mm 7 m/s 743 mmHg 90%
    22:00 +15°C° 0.1 mm 7 m/s 744 mmHg 91%
    23:00 +14°C° 0.2 mm 7 m/s 744 mmHg 92%

    24 Junho, Segunda-feira

    Tempo Temperatura Precipitação Vento Pressão Humidade
    00:00 +14°C° 0.2 mm 7 m/s 744 mmHg 92%
    01:00 +14°C° 0.2 mm 7 m/s 745 mmHg 93%
    02:00 +14°C° 0.7 mm 7 m/s 745 mmHg 93%
    03:00 +14°C° 0.7 mm 7 m/s 745 mmHg 94%
    04:00 +12°C° 0.7 mm 7 m/s 745 mmHg 95%
    05:00 +13°C° 0.3 mm 6 m/s 746 mmHg 94%
    06:00 +13°C° 0.3 mm 6 m/s 746 mmHg 94%
    07:00 +13°C° 0.3 mm 5 m/s 747 mmHg 93%
    08:00 +13°C° 0 mm 5 m/s 747 mmHg 92%
    09:00 +13°C° 0 mm 5 m/s 747 mmHg 90%
    10:00 +13°C° 0 mm 5 m/s 748 mmHg 89%
    11:00 +16°C° 0 mm 5 m/s 748 mmHg 80%
    12:00 +19°C° 0 mm 5 m/s 748 mmHg 71%
    13:00 +21°C° 0 mm 5 m/s 749 mmHg 62%
    14:00 +21°C° 0 mm 5 m/s 749 mmHg 61%
    15:00 +21°C° 0 mm 5 m/s 749 mmHg 61%
    16:00 +21°C° 0 mm 4 m/s 748 mmHg 61%
    17:00 +20°C° 0 mm 4 m/s 749 mmHg 66%
    18:00 +19°C° 0 mm 3 m/s 749 mmHg 72%
    19:00 +19°C° 0 mm 2 m/s 749 mmHg 77%
    20:00 +17°C° 0 mm 2 m/s 749 mmHg 80%
    21:00 +16°C° 0 mm 2 m/s 750 mmHg 83%
    22:00 +15°C° 0 mm 2 m/s 750 mmHg 86%
    23:00 +14°C° 0 mm 2 m/s 750 mmHg 87%
    Mostrar mais